This is the latest recevied weather packets stored in our database for station/object KC3WWU. If no packets are shown the sender has not sent any weather packets the latest 10 day(s).
| Time | Temp. | Humidity | Pressure | Rain* | Wind** | Luminosity | Snow |
|---|---|---|---|---|---|---|---|
| 1777937575 | 18.89° C | 55% | 1006.1 hPa | 0 mm | - | 30 W/m² | - |
| 1777937272 | 18.89° C | 54% | 1005.9 hPa | 0 mm | - | 34 W/m² | - |
| 1777936969 | 18.89° C | 54% | 1006.1 hPa | 0 mm | - | 46 W/m² | - |
| 1777936666 | 18.89° C | 53% | 1006.1 hPa | 0 mm | - | 38 W/m² | - |
| 1777936362 | 18.89° C | 53% | 1006 hPa | 0 mm | - | 30 W/m² | - |
| 1777936058 | 18.89° C | 53% | 1006.1 hPa | 0 mm | - | 35 W/m² | - |
| 1777935757 | 18.89° C | 53% | 1006 hPa | 0 mm | - | 36 W/m² | - |
| 1777935455 | 19.44° C | 51% | 1005.8 hPa | 0 mm | - | 37 W/m² | - |
| 1777935151 | 20° C | 52% | 1005.8 hPa | 0 mm | - | 71 W/m² | - |
| 1777934848 | 20° C | 50% | 1005.9 hPa | 0 mm | - | 90 W/m² | - |
| 1777934546 | 20° C | 50% | 1005.9 hPa | 0 mm | - | 136 W/m² | - |
| 1777934242 | 20° C | 49% | 1006.1 hPa | 0 mm | - | 142 W/m² | - |
| 1777933937 | 20.56° C | 49% | 1005.9 hPa | 0 mm | - | 48 W/m² | - |
| 1777933635 | 20.56° C | 50% | 1006 hPa | 0 mm | - | 189 W/m² | - |
| 1777933332 | 20° C | 51% | 1005.9 hPa | 0 mm | - | 204 W/m² | - |
| 1777933029 | 20.56° C | 49% | 1006 hPa | 0 mm | - | 70 W/m² | - |
| 1777932726 | 21.11° C | 48% | 1005.9 hPa | 0 mm | - | 234 W/m² | - |
| 1777932422 | 21.11° C | 47% | 1006.1 hPa | 0 mm | - | 242 W/m² | - |
| 1777932120 | 21.11° C | 49% | 1005.7 hPa | 0 mm | - | 265 W/m² | - |
| 1777931816 | 21.11° C | 49% | 1005.9 hPa | 0 mm | - | 278 W/m² | - |
| 1777931514 | 21.11° C | 48% | 1005.9 hPa | 0 mm | - | 292 W/m² | - |
| 1777931209 | 21.11° C | 49% | 1005.8 hPa | 0 mm | - | 310 W/m² | - |
| 1777930906 | 21.11° C | 48% | 1005.6 hPa | 0 mm | - | 327 W/m² | - |
| 1777930603 | 21.11° C | 48% | 1005.7 hPa | 0 mm | - | 355 W/m² | - |
| 1777930299 | 20.56° C | 49% | 1005.6 hPa | 0 mm | - | 384 W/m² | - |
* Rain latest hour (hover to see other rain measurements)
** Current wind speed in m/s (hover to see current wind gust speed)